Regional Weather Roundup
Issued by NWS

Home | Current Version | Previous Version | Text Only | Print | Product List | Glossary On
Versions: 1 2 3 4 5 6 7 8 9 10 11 12 13 14 15 16 17 18 19 20 21 22 23 24 25 26 27 28 29 30 31
000
ASUS45 KREV 221510
RWRNV
NEVADA REGIONAL WEATHER ROUNDUP
NATIONAL WEATHER SERVICE RENO NV
800 AM PDT WED OCT 22 2014

NOTE: "FAIR" INDICATES FEW OR NO CLOUDS BELOW 12,000 FEET WITH NO
SIGNIFICANT WEATHER AND/OR OBSTRUCTIONS TO VISIBILITY.

NVZ001-003-004-221600-
WESTERN NEVADA

CITY           SKY/WX    TMP DP  RH WIND       PRES   REMARKS
RENO           NOT AVBL
CARSON CITY    FAIR      36  25  64 CALM      30.15R
MINDEN         FAIR      32  21  64 CALM      30.16
SLIDE MTN        N/A     36  23  60 W15         N/A
FALLON         NOT AVBL
LOVELOCK       NOT AVBL
HAWTHORNE      CLEAR     46  27  46 CALM      30.15R
$$

NVZ002-CAZ072-073-221600-
NORTHERN AND CENTRAL SIERRA

CITY           SKY/WX    TMP DP  RH WIND       PRES   REMARKS
SQUAW VLY 8000 NOT AVBL
SUSANVILLE     CLEAR     37  32  81 CALM      30.13R
BLUE CANYON    FAIR      52   3  13 SE3       30.14R
MAMMOTH LAKES  FAIR      30  18  59 N3        30.21R
$$

NVZ030-031-036-221600-
NORTHERN NEVADA

CITY           SKY/WX    TMP DP  RH WIND       PRES   REMARKS
ELKO           NOT AVBL
WINNEMUCCA     NOT AVBL
WENDOVER       FAIR      41  28  60 NW3       30.18S
$$

NVZ035-037-221600-
CENTRAL NEVADA

CITY           SKY/WX    TMP DP  RH WIND       PRES   REMARKS
ELY            NOT AVBL
EUREKA           N/A     34  13  41 CALM      30.21R
$$

NVZ013-014-221600-
SOUTH CENTRAL NEVADA

CITY           SKY/WX    TMP DP  RH WIND       PRES   REMARKS
TONOPAH        NOT AVBL
$$

NVZ017-020-022-221600-
SOUTHERN NEVADA

CITY           SKY/WX    TMP DP  RH WIND       PRES   REMARKS
LAS VEGAS      NOT AVBL
NELLIS AFB     NOT AVBL
HENDERSON      NOT AVBL
MERCURY        FAIR      56  23  27 E3        30.06R
$$



USA.gov is the U.S. government's official web portal to all federal, state and local government web resources and services.